EW9652 Weather Reports


time (UTC)temp
C
wind
direction
speed
KPH
gust
KPH
rain 1hr
cm
rain 24hr
cm
rain mn
cm
humidity
%
barometer
mb
20260505152842 14 352 17.7 30.6 0.00 0.00 0.00 44 1007.4
20260505152614 14 15 17.7 30.6 0.00 0.00 0.00 44 1007.4
20260505151841 13 31 17.7 29.0 0.00 0.00 0.00 44 1007.4
20260505151340 13 23 16.1 25.7 0.00 0.00 0.00 46 1007.3
20260505150838 13 353 17.7 25.7 0.00 0.00 0.00 47 1007.3
20260505150339 13 8 19.3 27.4 0.00 0.00 0.00 46 1007.2
20260505140555 12 0 19.3 27.4 0.00 0.00 0.00 50 1007.0
20260505124811 12 0 11.3 17.7 0.00 0.00 0.00 54 1005.4
20260505124310 12 1 11.3 19.3 0.00 0.00 0.00 55 1005.5
20260505123812 12 359 11.3 19.3 0.00 0.00 0.00 55 1005.2
20260505123310 12 357 12.9 20.9 0.00 0.00 0.00 55 1005.1
20260505122810 12 0 14.5 20.9 0.00 0.00 0.00 55 1004.9
20260505122309 12 348 16.1 22.5 0.00 0.00 0.00 55 1004.8
20260505121807 12 359 16.1 22.5 0.00 0.00 0.00 56 1004.7
20260505121306 12 359 16.1 24.1 0.00 0.00 0.00 56 1004.7
20260505120805 12 1 16.1 24.1 0.00 0.00 0.00 55 1004.6
20260505120304 12 2 14.5 24.1 0.00 0.00 0.00 55 1004.9
20260505115805 12 0 14.5 22.5 0.00 0.00 0.00 55 1004.9
20260505115304 12 15 16.1 25.7 0.00 0.00 0.00 55 1004.9
20260505115033 12 6 16.1 25.7 0.00 0.00 0.00 56 1004.7
20260505114302 13 354 17.7 27.4 0.00 0.00 0.00 56 1004.5
20260505114032 13 1 19.3 30.6 0.00 0.00 0.00 57 1004.3
20260505113300 13 0 17.7 30.6 0.00 0.00 0.00 56 1004.4
20260505112802 13 358 19.3 29.0 0.00 0.00 0.00 56 1004.2
20260505112758 13 359 17.7 25.7 0.00 0.00 0.00 56 1004.3
20260505111758 13 1 20.9 29.0 0.00 0.00 0.00 55 1004.4
20260505111258 13 1 20.9 33.8 0.00 0.00 0.00 55 1004.3
20260505110756 14 359 22.5 33.8 0.00 0.00 0.00 54 1004.2
20260505110254 14 359 20.9 33.8 0.00 0.00 0.00 52 1004.1
20260505101751 17 353 20.9 30.6 0.00 0.00 0.00 30 1003.8
20260505101248 18 326 20.9 33.8 0.00 0.00 0.00 28 1003.6
20260505100748 18 352 17.7 33.8 0.00 0.00 0.00 27 1003.4
20260505100249 18 359 14.5 32.2 0.00 0.00 0.00 27 1003.4
20260505095746 19 337 14.5 27.4 0.00 0.00 0.00 27 1003.3
20260505095246 20 333 19.3 45.1 0.00 0.00 0.00 25 1003.0
20260505094747 20 313 19.3 45.1 0.00 0.00 0.00 26 1002.6
20260505094511 20 347 16.1 29.0 0.00 0.00 0.00 25 1002.2
20260505093740 20 262 14.5 27.4 0.00 0.00 0.00 25 1002.0
20260505093241 20 264 14.5 30.6 0.00 0.00 0.00 25 1001.8
20260505092740 20 199 16.1 35.4 0.00 0.00 0.00 25 1001.6
20260505092239 20 257 17.7 35.4 0.00 0.00 0.00 25 1001.5
20260505091739 20 226 17.7 33.8 0.00 0.00 0.00 24 1001.5
20260505091236 20 249 14.5 27.4 0.00 0.00 0.00 24 1001.6
20260505091007 20 274 12.9 27.4 0.00 0.00 0.00 24 1001.7
20260505090842 20 237 11.3 24.1 0.00 0.00 0.00 24 1001.9
20260505085732 20 165 11.3 20.9 0.00 0.00 0.00 24 1001.9
20260505085232 20 257 12.9 24.1 0.00 0.00 0.00 24 1001.8
20260505085003 20 250 12.9 24.1 0.00 0.00 0.00 24 1001.8
20260505084457 20 236 12.9 20.9 0.00 0.00 0.00 24 1001.7
20260505083957 20 230 12.9 20.9 0.00 0.00 0.00 24 1001.7
20260505083227 20 234 12.9 24.1 0.00 0.00 0.00 24 1001.6
20260505082727 20 214 11.3 24.1 0.00 0.00 0.00 23 1001.6
20260505082225 20 246 12.9 22.5 0.00 0.00 0.00 23 1001.5
20260505081956 21 244 14.5 25.7 0.00 0.00 0.00 23 1001.5
20260505081225 21 198 14.5 25.7 0.00 0.00 0.00 23 1001.5
20260505080955 21 340 14.5 25.7 0.00 0.00 0.00 22 1001.6
20260505080224 21 260 14.5 25.7 0.00 0.00 0.00 22 1001.7
20260505075721 21 249 11.3 22.5 0.00 0.00 0.00 22 1001.7
20260505075219 21 306 9.7 22.5 0.00 0.00 0.00 22 1001.9
20260505074719 21 250 11.3 22.5 0.00 0.00 0.00 22 1001.8
20260505074218 21 249 11.3 24.1 0.00 0.00 0.00 22 1001.9
20260505073718 21 281 11.3 25.7 0.00 0.00 0.00 22 1002.0
20260505073218 21 257 11.3 25.7 0.00 0.00 0.00 22 1002.0
20260505072716 21 257 12.9 20.9 0.00 0.00 0.00 22 1002.1
20260505072216 21 251 12.9 22.5 0.00 0.00 0.00 22 1002.0
20260505071948 21 196 11.3 22.5 0.00 0.00 0.00 22 1002.2
20260505071214 21 240 9.7 22.5 0.00 0.00 0.00 22 1002.2
20260505070710 21 233 9.7 19.3 0.00 0.00 0.00 22 1002.2
20260505070205 21 240 9.7 19.3 0.00 0.00 0.00 22 1002.2
20260505065937 22 233 11.3 22.5 0.00 0.00 0.00 22 1002.3
20260505065204 22 267 12.9 22.5 0.00 0.00 0.00 21 1002.2
20260505064704 22 233 12.9 27.4 0.00 0.00 0.00 21 1002.3
20260505064204 22 233 12.9 27.4 0.00 0.00 0.00 21 1002.3
20260505063700 22 249 12.9 25.7 0.00 0.00 0.00 21 1002.2
20260505063159 22 248 14.5 25.7 0.00 0.00 0.00 21 1002.1
20260505062700 22 236 14.5 22.5 0.00 0.00 0.00 21 1002.1
20260505062159 22 238 12.9 22.5 0.00 0.00 0.00 21 1002.2
20260505061659 22 249 12.9 24.1 0.00 0.00 0.00 21 1002.2
20260505061429 22 221 12.9 24.1 0.00 0.00 0.00 21 1002.3
20260505060658 22 211 12.9 24.1 0.00 0.00 0.00 21 1002.3
20260505060159 22 245 12.9 24.1 0.00 0.00 0.00 21 1002.3
20260505055700 22 247 11.3 22.5 0.00 0.00 0.00 21 1002.3
20260505055656 22 245 9.7 20.9 0.00 0.00 0.00 21 1002.3
20260505054925 22 226 12.9 22.5 0.00 0.00 0.00 21 1002.3
20260505054152 22 263 12.9 22.5 0.00 0.00 0.00 21 1002.4
20260505053653 22 277 12.9 25.7 0.00 0.00 0.00 21 1002.4
20260505053151 22 226 12.9 25.7 0.00 0.00 0.00 21 1002.4
20260505052651 22 234 14.5 25.7 0.00 0.00 0.00 21 1002.4
20260505052152 22 1 14.5 25.7 0.00 0.00 0.00 21 1002.5
20260505051646 22 262 16.1 29.0 0.00 0.00 0.00 21 1002.4
20260505051144 22 243 17.7 29.0 0.00 0.00 0.00 20 1002.5
20260505050642 22 242 16.1 29.0 0.00 0.00 0.00 21 1002.5
20260505050139 22 249 17.7 29.0 0.00 0.00 0.00 21 1002.6
20260505041134 23 248 14.5 25.7 0.00 0.00 0.00 21 1002.5
20260505040905 23 280 12.9 25.7 0.00 0.00 0.00 21 1002.5
20260505040133 22 0 11.3 25.7 0.00 0.00 0.00 21 1002.4
20260505035632 22 253 11.3 25.7 0.00 0.00 0.00 21 1002.5
20260505035131 22 146 11.3 22.5 0.00 0.00 0.00 21 1002.6
20260505034631 22 248 12.9 22.5 0.00 0.00 0.00 21 1002.6
20260505034359 23 0 14.5 27.4 0.00 0.00 0.00 21 1002.6
20260505033628 23 240 17.7 27.4 0.00 0.00 0.00 21 1002.7
20260505033129 23 254 19.3 32.2 0.00 0.00 0.00 21 1002.6
20260505032626 23 194 19.3 32.2 0.00 0.00 0.00 21 1002.5
20260505032126 23 243 17.7 30.6 0.00 0.00 0.00 21 1002.4
20260505031628 23 295 16.1 33.8 0.00 0.00 0.00 21 1002.3
20260505031126 23 259 14.5 33.8 0.00 0.00 0.00 21 1002.3
20260505030627 23 205 14.5 29.0 0.00 0.00 0.00 21 1002.4
20260505030124 23 190 12.9 29.0 0.00 0.00 0.00 21 1002.4
20260505025621 23 248 11.3 24.1 0.00 0.00 0.00 21 1002.4
20260505025353 23 290 11.3 22.5 0.00 0.00 0.00 21 1002.4
20260505024623 23 260 11.3 22.5 0.00 0.00 0.00 21 1002.4
20260505024351 23 236 9.7 22.5 0.00 0.00 0.00 21 1002.4
20260505023619 24 235 12.9 25.7 0.00 0.00 0.00 20 1002.4
20260505023120 24 243 14.5 25.7 0.00 0.00 0.00 20 1002.3
20260505022620 24 173 14.5 29.0 0.00 0.00 0.00 20 1002.3
20260505022118 24 245 16.1 29.0 0.00 0.00 0.00 19 1002.3
20260505021618 25 241 17.7 35.4 0.00 0.00 0.00 19 1002.2
20260505021116 25 246 19.3 35.4 0.00 0.00 0.00 18 1002.1
20260505020615 25 263 17.7 32.2 0.00 0.00 0.00 17 1002.1
20260505020115 25 245 17.7 33.8 0.00 0.00 0.00 16 1002.1
20260505015845 25 233 16.1 33.8 0.00 0.00 0.00 15 1002.0
20260505015115 25 0 14.5 29.0 0.00 0.00 0.00 13 1002.1
20260505014613 26 236 17.7 30.6 0.00 0.00 0.00 13 1002.0
20260505014114 26 257 16.1 30.6 0.00 0.00 0.00 13 1002.0
20260505013610 26 217 17.7 32.2 0.00 0.00 0.00 13 1002.0
20260505013106 26 235 17.7 32.2 0.00 0.00 0.00 13 1001.9
20260505012601 26 263 14.5 32.2 0.00 0.00 0.00 13 1001.8
20260505012101 26 245 16.1 29.0 0.00 0.00 0.00 12 1001.9
20260505011603 26 247 16.1 32.2 0.00 0.00 0.00 12 1001.8
20260505011102 26 248 14.5 32.2 0.00 0.00 0.00 12 1001.7
20260505010602 26 238 16.1 29.0 0.00 0.00 0.00 12 1001.8
20260505010333 26 235 20.9 40.2 0.00 0.00 0.00 12 1001.9
20260505005831 26 246 20.9 40.2 0.00 0.00 0.00 11 1001.9
20260505005330 27 265 17.7 37.0 0.00 0.00 0.00 11 1001.8
20260505004559 27 198 20.9 46.7 0.00 0.00 0.00 11 1001.9
20260505004327 27 252 20.9 46.7 0.00 0.00 0.00 11 1001.9
20260505003556 27 246 20.9 41.8 0.00 0.00 0.00 11 1002.0
20260505003054 27 297 19.3 41.8 0.00 0.00 0.00 11 1001.9
20260505002552 27 203 19.3 40.2 0.00 0.00 0.00 11 1001.9
20260505002052 27 259 20.9 40.2 0.00 0.00 0.00 12 1002.1
20260505001823 27 250 22.5 40.2 0.00 0.00 0.00 12 1002.1
20260505001050 27 269 24.1 38.6 0.00 0.00 0.00 11 1002.2
20260505000550 27 188 24.1 41.8 0.00 0.00 0.00 11 1002.2
20260505000050 27 257 22.5 41.8 0.00 0.00 0.00 11 1002.1
20260504235819 27 252 22.5 38.6 0.00 0.00 0.00 10 1002.1
20260504235047 27 274 24.1 40.2 0.00 0.00 0.00 11 1002.1
20260504234546 27 281 24.1 40.2 0.00 0.00 0.00 11 1002.0
20260504234046 28 226 22.5 35.4 0.00 0.00 0.00 11 1002.1
20260504233546 28 259 22.5 37.0 0.00 0.00 0.00 11 1002.0
20260504233043 28 215 20.9 41.8 0.00 0.00 0.00 11 1002.1
20260504232544 28 232 22.5 41.8 0.00 0.00 0.00 11 1002.1
20260504232044 28 249 22.5 37.0 0.00 0.00 0.00 11 1002.1
20260504231542 28 293 22.5 38.6 0.00 0.00 0.00 10 1002.0
20260504231042 28 248 22.5 41.8 0.00 0.00 0.00 11 1002.0
20260504230542 28 258 19.3 41.8 0.00 0.00 0.00 10 1002.0
20260504230041 28 253 22.5 40.2 0.00 0.00 0.00 10 1001.9
20260504225539 28 250 27.4 51.5 0.00 0.00 0.00 10 1001.9
20260504225040 28 261 25.7 51.5 0.00 0.00 0.00 10 1001.8
20260504224537 28 238 24.1 40.2 0.00 0.00 0.00 10 1001.9
20260504224037 29 250 20.9 38.6 0.00 0.00 0.00 11 1001.8
20260504223537 29 324 19.3 35.4 0.00 0.00 0.00 13 1001.7
20260504223036 28 229 20.9 33.8 0.00 0.00 0.00 15 1001.8
20260504222535 29 219 22.5 43.5 0.00 0.00 0.00 17 1001.9
20260504222036 29 262 22.5 43.5 0.00 0.00 0.00 13 1002.0
20260504221533 29 280 19.3 41.8 0.00 0.00 0.00 14 1002.2
20260504221034 29 0 17.7 29.0 0.00 0.00 0.00 17 1002.3
20260504220532 28 248 17.7 30.6 0.00 0.00 0.00 16 1002.2
20260504220031 29 286 16.1 30.6 0.00 0.00 0.00 16 1002.3
20260504215532 28 285 14.5 27.4 0.00 0.00 0.00 18 1002.5
20260504215030 28 271 16.1 35.4 0.00 0.00 0.00 19 1002.5
20260504214530 28 223 20.9 35.4 0.00 0.00 0.00 18 1002.6
20260504214029 28 261 20.9 35.4 0.00 0.00 0.00 18 1002.8
20260504213800 28 229 19.3 35.4 0.00 0.00 0.00 19 1002.9
20260504213029 28 262 16.1 33.8 0.00 0.00 0.00 20 1003.1
20260504212529 28 233 14.5 29.0 0.00 0.00 0.00 19 1003.1
20260504212030 28 246 14.5 29.0 0.00 0.00 0.00 19 1003.3
20260504211529 28 0 16.1 33.8 0.00 0.00 0.00 18 1003.3
20260504211030 28 223 16.1 33.8 0.00 0.00 0.00 17 1003.5
20260504210529 29 311 14.5 27.4 0.00 0.00 0.00 18 1003.5
20260504210029 28 278 14.5 27.4 0.00 0.00 0.00 18 1003.7
20260504205738 28 0 16.1 32.2 0.00 0.00 0.00 17 1003.6
20260504205009 28 227 14.5 32.2 0.00 0.00 0.00 17 1003.7
20260504204506 29 266 14.5 32.2 0.00 0.00 0.00 16 1003.7
20260504204235 29 234 16.1 32.2 0.00 0.00 0.00 15 1003.9
20260504203504 29 274 16.1 30.6 0.00 0.00 0.00 15 1003.9
20260504203000 28 246 16.1 30.6 0.00 0.00 0.00 17 1003.9
20260504202730 29 235 19.3 37.0 0.00 0.00 0.00 17 1003.9
20260504201958 29 252 22.5 40.2 0.00 0.00 0.00 16 1004.1
20260504201457 28 269 20.9 40.2 0.00 0.00 0.00 17 1004.1
20260504200957 28 243 16.1 35.4 0.00 0.00 0.00 17 1004.1
20260504200458 28 272 14.5 30.6 0.00 0.00 0.00 17 1004.3
20260504200227 29 0 14.5 30.6 0.00 0.00 0.00 18 1004.1
20260504195455 29 252 12.9 30.6 0.00 0.00 0.00 18 1004.3
20260504195227 28 242 12.9 30.6 0.00 0.00 0.00 19 1004.5
20260504194726 29 233 12.9 25.7 0.00 0.00 0.00 20 1004.6
20260504193956 29 235 14.5 29.0 0.00 0.00 0.00 19 1004.7
20260504193455 28 231 12.9 29.0 0.00 0.00 0.00 21 1004.7
20260504192955 28 0 11.3 27.4 0.00 0.00 0.00 20 1004.9
20260504192455 28 243 12.9 29.0 0.00 0.00 0.00 21 1004.9
20260504191955 28 263 12.9 29.0 0.00 0.00 0.00 21 1005.1
20260504191456 28 287 14.5 29.0 0.00 0.00 0.00 21 1005.0
20260504190949 28 259 14.5 29.0 0.00 0.00 0.00 20 1005.2
20260504190449 27 262 16.1 27.4 0.00 0.00 0.00 23 1005.1
20260504185949 28 240 16.1 27.4 0.00 0.00 0.00 23 1005.2
20260504185447 28 240 16.1 27.4 0.00 0.00 0.00 23 1005.3
20260504184948 27 214 14.5 27.4 0.00 0.00 0.00 24 1005.4
20260504184445 28 229 12.9 27.4 0.00 0.00 0.00 24 1005.6
20260504183945 27 113 12.9 27.4 0.00 0.00 0.00 24 1005.6
20260504183445 27 247 12.9 27.4 0.00 0.00 0.00 24 1005.7
20260504183216 27 275 11.3 25.7 0.00 0.00 0.00 24 1005.7
20260504182445 27 262 12.9 25.7 0.00 0.00 0.00 25 1005.8
20260504181943 27 271 14.5 27.4 0.00 0.00 0.00 25 1006.2
20260504181441 27 266 14.5 29.0 0.00 0.00 0.00 26 1006.2
20260504181213 27 257 12.9 29.0 0.00 0.00 0.00 26 1006.3
20260504180712 27 307 12.9 24.1 0.00 0.00 0.00 25 1006.4
20260504175941 27 281 14.5 29.0 0.00 0.00 0.00 26 1006.6
20260504175443 27 304 16.1 29.0 0.00 0.00 0.00 25 1006.7
20260504175210 27 252 14.5 27.4 0.00 0.00 0.00 26 1006.7
20260504174439 27 306 14.5 27.4 0.00 0.00 0.00 26 1006.9
20260504173937 27 0 16.1 30.6 0.00 0.00 0.00 26 1006.9
20260504173708 26 275 19.3 33.8 0.00 0.00 0.00 26 1007.0
20260504172935 26 265 19.3 33.8 0.00 0.00 0.00 26 1007.1
20260504172707 26 299 20.9 33.8 0.00 0.00 0.00 27 1007.2
20260504171933 26 275 22.5 41.8 0.00 0.00 0.00 26 1007.2
20260504171432 26 255 20.9 41.8 0.00 0.00 0.00 26 1007.4
20260504170933 26 281 19.3 33.8 0.00 0.00 0.00 27 1007.3
20260504170702 26 314 19.3 30.6 0.00 0.00 0.00 27 1007.4
20260504170202 26 249 16.1 30.6 0.00 0.00 0.00 27 1007.4
20260504160423 23 243 12.9 24.1 0.00 0.00 0.00 37 1008.2